Weather History for KTZR - October, 2011

Change the Weather History Date:

Sunday, October 16, 2011

  Actual Average Record
Temperature  
Mean Temperature 60 °F -  
Max Temperature 75 °F 63 °F 78 °F (1999)
Min Temperature 44 °F 44 °F 34 °F (2012)
Degree Days  
Heating Degree Days 6    
Growing Degree Days 10 (Base 50)    
Moisture  
Dew Point 41 °F    
Average Humidity 58    
Maximum Humidity 71    
Minimum Humidity 34    
Precipitation  
Precipitation 0.00 in - - ()
Sea Level Pressure  
Sea Level Pressure 29.86 in    
Wind  
Wind Speed 9 mph (WSW)    
Max Wind Speed 22 mph    
Max Gust Speed 29 mph    
Visibility 10 miles    
Events Rain    
Averages and records for this station are not official NWS values.
T = Trace of Precipitation, MM = Missing Value Source: NWS Daily Summary

Daily Weather History Graph

Daily Weather History Graph

Search for Another Location

Airport or City:

Trip Planner

Search our weather history database for the weather conditions in past years. The results will help you decide how hot, cold, wet, or windy it might be!

Date:

Astronomy

Oct. 16, 2011 Rise Set
Actual Time 7:43 AM EDT 6:51 PM EDT
Civil Twilight 7:16 AM EDT 7:19 PM EDT
Nautical Twilight 6:45 AM EDT 7:50 PM EDT
Astronomical Twilight 6:13 AM EDT 8:21 PM EDT
Moon 9:37 PM EDT (10/16) 11:59 AM EDT (10/16)
Length of Visible Light 12h 02m
Length of Day
11h 08m
Waning Gibbous, 82% of the Moon is Illuminated
Oct 16
Waning Gibbous
Oct 19
Last Quarter
Oct 26
New
Nov 2
First Quarter
Nov 10
Full

Hourly Weather History & Observations

Time (EDT) Temp. Windchill Dew Point Humidity Pressure Visibility Wind Dir Wind Speed Gust Speed Precip Events Conditions
12:15 AM 48.2 °F - 35.6 °F 62% 29.95 in 10.0 mi WSW 8.1 mph - N/A   Unknown
12:35 AM 46.4 °F 42.9 °F 35.6 °F 66% 29.96 in 10.0 mi SW 6.9 mph - N/A   Unknown
1:35 AM 44.6 °F 42.2 °F 35.6 °F 71% 29.96 in 10.0 mi SW 4.6 mph - N/A   Unknown
1:55 AM 44.6 °F 41.4 °F 35.6 °F 71% 29.97 in 10.0 mi SW 5.8 mph - N/A   Unknown
2:15 AM 44.6 °F 41.4 °F 35.6 °F 71% 29.98 in 10.0 mi SW 5.8 mph - N/A   Unknown
2:35 AM 44.6 °F 41.4 °F 35.6 °F 71% 29.99 in 10.0 mi SW 5.8 mph - N/A   Unknown
2:55 AM 44.6 °F 40.7 °F 35.6 °F 71% 29.99 in 10.0 mi SW 6.9 mph - N/A   Unknown
3:15 AM 44.6 °F 41.4 °F 35.6 °F 71% 29.99 in 10.0 mi SW 5.8 mph - N/A   Unknown
3:35 AM 44.6 °F 41.4 °F 35.6 °F 71% 29.99 in 10.0 mi SW 5.8 mph - N/A   Unknown
3:55 AM 44.6 °F 41.4 °F 35.6 °F 71% 29.99 in 10.0 mi SW 5.8 mph - N/A   Unknown
4:15 AM 44.6 °F 40.7 °F 35.6 °F 71% 29.98 in 10.0 mi SW 6.9 mph - N/A   Unknown
4:55 AM 48.2 °F - 37.4 °F 66% 29.97 in 10.0 mi SSW 6.9 mph - N/A   Unknown
5:15 AM 48.2 °F - 37.4 °F 66% 29.98 in 10.0 mi SW 9.2 mph - N/A   Unknown
5:35 AM 48.2 °F - 37.4 °F 66% 29.97 in 10.0 mi SW 8.1 mph - N/A   Unknown
5:55 AM 50.0 °F - 37.4 °F 62% 29.97 in 10.0 mi SW 6.9 mph - N/A   Unknown
6:15 AM 50.0 °F - 37.4 °F 62% 29.97 in 10.0 mi SW 6.9 mph - N/A   Unknown
6:35 AM 50.0 °F - 39.2 °F 66% 29.97 in 10.0 mi SSW 9.2 mph - N/A   Unknown
6:55 AM 50.0 °F - 37.4 °F 62% 29.96 in 10.0 mi SSW 8.1 mph - N/A   Unknown
8:58 AM 51.8 °F - 39.2 °F 62% 29.93 in 10.0 mi South 9.2 mph - N/A   Overcast
9:50 AM 53.6 °F - 39.2 °F 58% 29.92 in 10.0 mi South 8.1 mph - N/A   Overcast
10:50 AM 55.4 °F - 39.2 °F 54% - - North - - N/A   Overcast
12:50 PM 66.2 °F - 39.2 °F 37% 29.82 in 10.0 mi SW 21.9 mph 27.6 mph N/A   Overcast
3:55 PM 73.4 °F - 44.6 °F 36% 29.70 in 10.0 mi SW 18.4 mph 25.3 mph N/A   Clear
4:55 PM 75.2 °F - 44.6 °F 34% 29.69 in 10.0 mi WSW 17.3 mph 28.8 mph N/A   Clear
5:15 PM 73.4 °F - 44.6 °F 36% 29.70 in 10.0 mi WSW 15.0 mph 27.6 mph N/A   Unknown
5:35 PM 73.4 °F - 46.4 °F 38% 29.71 in 10.0 mi West 18.4 mph 27.6 mph N/A   Unknown
5:55 PM 73.4 °F - 46.4 °F 38% 29.68 in 10.0 mi WSW 13.8 mph 20.7 mph N/A   Unknown
6:15 PM 71.6 °F - 46.4 °F 41% 29.71 in 10.0 mi West 15.0 mph 19.6 mph N/A   Unknown
6:35 PM 71.6 °F - 48.2 °F 43% 29.71 in 10.0 mi West 8.1 mph - N/A   Unknown
6:47 PM 71.6 °F - 48.2 °F 43% 29.71 in 10.0 mi WNW 10.4 mph - N/A   Mostly Cloudy
6:55 PM 71.6 °F - 48.2 °F 43% 29.72 in 10.0 mi West 12.7 mph - N/A   Unknown
7:15 PM 68.0 °F - 48.2 °F 49% 29.72 in 10.0 mi West 10.4 mph 24.2 mph N/A   Unknown
7:35 PM 68.0 °F - 48.2 °F 49% 29.74 in 10.0 mi WNW 15.0 mph 19.6 mph N/A   Unknown
7:55 PM 66.2 °F - 48.2 °F 52% 29.76 in 10.0 mi NW 19.6 mph 25.3 mph N/A Rain Light Rain
8:15 PM 60.8 °F - 48.2 °F 63% 29.78 in 10.0 mi NW 18.4 mph 28.8 mph N/A   Light Drizzle
8:35 PM 59.0 °F - 46.4 °F 63% 29.79 in 10.0 mi WNW 11.5 mph 20.7 mph N/A   Unknown
8:55 PM 57.2 °F - 46.4 °F 67% 29.79 in 10.0 mi WNW 9.2 mph - N/A   Unknown
9:15 PM 57.2 °F - 46.4 °F 67% 29.80 in 10.0 mi WNW 10.4 mph 16.1 mph N/A   Unknown
9:35 PM 57.2 °F - 46.4 °F 67% 29.80 in 10.0 mi WNW 9.2 mph 16.1 mph N/A   Unknown
9:55 PM 57.2 °F - 46.4 °F 67% 29.81 in 10.0 mi NW 12.7 mph - N/A   Unknown
10:15 PM 57.2 °F - 44.6 °F 63% 29.82 in 10.0 mi NW 11.5 mph 17.3 mph N/A   Unknown
10:35 PM 57.2 °F - 42.8 °F 59% 29.83 in 10.0 mi NW 8.1 mph - N/A   Unknown
10:55 PM 57.2 °F - 39.2 °F 51% 29.84 in 10.0 mi NW 11.5 mph 18.4 mph N/A   Unknown
11:35 PM 55.4 °F - 39.2 °F 54% 29.85 in 10.0 mi NW 6.9 mph - N/A   Unknown
11:55 PM 55.4 °F - 39.2 °F 54% 29.85 in 10.0 mi NW 5.8 mph - N/A   Unknown